Location: Lafig�re
(44.4503°N, 4.0357°E)
Time: 15:41:13
(UTC+00:00)

Transit 2A Rocket - Pass Details

Date: 29 January 2021
Orbit: 594 x 908 km, 66.7° (Epoch: 06 March)

Event Time Altitude Azimuth Distance (km) Brightness Sun altitude
Rises 19:28:45 0° 326° (NW) 2,898 8.5 -28.5°
Reaches altitude 10° 19:31:03 10° 325° (NW) 1,964 7.6 -29.0°
Enters shadow 19:33:20 30° 319° (NW) 1,089 6.1 -29.4°
Maximum altitude 19:35:24 74° 241° (WSW) 624 - -29.7°
Drops below altitude 10° 19:39:41 10° 156° (SSE) 1,925 - -30.5°
Sets 19:41:55 0° 155° (SSE) 2,835 - -30.9°
